DW0126 Weather Reports


Display with metric or nautical units.
time (UTC)temp
F
wind
direction
speed
MPH
gust
MPH
rain 1hr
in
rain 24hr
in
rain mn
in
humidity
%
barometer
mb
20260510105816 49 23 1.0 2.0 0.00 0.00 0.00 91 1017.0
20260510104836 49 225 4.0 6.0 0.00 0.00 0.00 92 1017.4
20260510103817 48 0.0 0.0 0.00 0.00 0.00 91 1016.9
20260510102816 48 225 1.0 3.0 0.00 0.00 0.00 91 1016.8
20260510101817 48 0.0 0.0 0.00 0.00 0.00 91 1016.4
20260510100816 48 0.0 0.0 0.00 0.00 0.00 90 1016.3
20260510095817 48 0.0 0.0 0.00 0.00 0.00 90 1016.1
20260510094816 48 0.0 0.0 0.00 0.00 0.00 90 1016.3
20260510093816 48 0.0 0.0 0.00 0.00 0.00 89 1016.3
20260510092816 48 0.0 0.0 0.00 0.00 0.00 89 1016.4
20260510091856 48 0.0 0.0 0.00 0.00 0.00 89 1016.3
20260510090817 48 0.0 0.0 0.00 0.00 0.00 89 1016.4
20260510085816 48 0.0 0.0 0.00 0.00 0.00 92 1016.4
20260510084836 49 0.0 0.0 0.00 0.00 0.00 88 1016.3
20260510083837 49 0.0 0.0 0.00 0.00 0.00 87 1016.1
20260510082816 49 0.0 0.0 0.00 0.00 0.00 87 1016.0
20260510081817 49 0.0 0.0 0.00 0.00 0.00 87 1016.0
20260510080816 49 0.0 0.0 0.00 0.00 0.00 86 1016.0
20260510075816 50 0.0 0.0 0.00 0.00 0.00 86 1016.0
20260510074817 50 0.0 0.0 0.00 0.00 0.00 86 1016.0
20260510073816 50 0.0 0.0 0.00 0.00 0.00 85 1015.9
20260510072817 51 0.0 0.0 0.00 0.00 0.00 85 1015.7
20260510071817 51 0.0 0.0 0.00 0.00 0.00 85 1015.8
20260510070816 51 0.0 0.0 0.00 0.00 0.00 85 1015.8
20260510065815 51 0.0 0.0 0.00 0.00 0.00 85 1015.7
20260510064815 52 0.0 0.0 0.00 0.00 0.00 84 1015.6
20260510063815 52 0.0 0.0 0.00 0.00 0.00 83 1015.5
20260510062815 52 0.0 0.0 0.00 0.00 0.00 82 1015.6
20260510061815 53 0.0 0.0 0.00 0.00 0.00 83 1015.7
20260510060815 53 0.0 0.0 0.00 0.00 0.00 83 1015.6
20260510055815 53 0.0 0.0 0.00 0.00 0.00 83 1015.7
20260510054815 54 0.0 0.0 0.00 0.00 0.00 82 1015.5
20260510053835 54 0.0 0.0 0.00 0.00 0.00 81 1015.4
20260510052815 55 0.0 0.0 0.00 0.00 0.00 81 1015.4
20260510051815 55 0.0 0.0 0.00 0.00 0.00 79 1015.3
20260510050815 56 0.0 0.0 0.00 0.00 0.00 78 1015.3
20260510045815 56 0.0 0.0 0.00 0.00 0.00 79 1015.2
20260510044835 56 0.0 0.0 0.00 0.00 0.00 78 1015.1
20260510043835 57 0.0 0.0 0.00 0.00 0.00 78 1015.2
20260510042815 57 0.0 0.0 0.00 0.00 0.00 76 1015.3
20260510041815 58 0.0 0.0 0.00 0.00 0.00 76 1015.1
20260510040815 59 0.0 0.0 0.00 0.00 0.00 75 1015.1
20260510035815 59 0.0 0.0 0.00 0.00 0.00 74 1015.1
20260510034815 61 0.0 0.0 0.00 0.00 0.00 70 1015.1
20260510033815 62 0.0 0.0 0.00 0.00 0.00 69 1015.2
20260510032815 63 0.0 0.0 0.00 0.00 0.00 68 1015.1
20260510031815 63 0.0 0.0 0.00 0.00 0.00 68 1015.0
20260510030835 64 0.0 0.0 0.00 0.00 0.00 68 1014.9
20260510025815 64 0.0 1.0 0.00 0.00 0.00 65 1014.9
20260510024815 65 68 1.0 1.0 0.00 0.00 0.00 60 1014.8
20260510023815 67 0.0 1.0 0.00 0.00 0.00 57 1014.9
20260510022835 69 23 1.0 2.0 0.00 0.00 0.00 47 1015.1
20260510021815 69 23 2.0 4.0 0.00 0.00 0.00 46 1015.0
20260510020815 69 23 3.0 4.0 0.00 0.00 0.00 45 1015.0
20260510015815 69 23 1.0 3.0 0.00 0.00 0.00 44 1015.2
20260510014835 69 68 3.0 4.0 0.00 0.00 0.00 43 1015.3
20260510013815 69 68 4.0 6.0 0.00 0.00 0.00 43 1015.5
20260510012817 69 68 3.0 5.0 0.00 0.00 0.00 48 1015.7
20260510011817 69 68 3.0 5.0 0.00 0.00 0.00 49 1015.8
20260510010817 70 23 4.0 7.0 0.00 0.00 0.00 48 1016.0
20260510005837 71 45 1.0 3.0 0.00 0.00 0.00 46 1016.1
20260510004817 71 45 3.0 5.0 0.00 0.00 0.00 47 1016.4
20260510003817 70 45 2.0 4.0 0.00 0.00 0.00 48 1016.4
20260510002817 70 23 3.0 6.0 0.00 0.00 0.00 50 1016.3
20260510001817 71 23 4.0 6.0 0.00 0.00 0.00 48 1016.4
20260510000817 71 23 3.0 5.0 0.00 0.00 0.00 48 1016.6
20260509235817 71 23 2.0 4.0 0.00 0.00 0.00 48 1016.8
20260509234817 71 23 3.0 6.0 0.00 0.00 0.00 49 1016.9
20260509233817 71 338 1.0 2.0 0.00 0.00 0.00 48 1017.1
20260509232837 71 0 3.0 5.0 0.00 0.00 0.00 49 1017.1
20260509231817 71 23 3.0 5.0 0.00 0.00 0.00 49 1017.1
20260509230837 71 23 3.0 5.0 0.00 0.00 0.00 49 1017.2
20260509225817 71 23 4.0 7.0 0.00 0.00 0.00 50 1017.4
20260509224857 71 68 2.0 4.0 0.00 0.00 0.00 51 1017.5
20260509223817 71 338 2.0 4.0 0.00 0.00 0.00 50 1017.5
20260509222817 71 0.0 3.0 0.00 0.00 0.00 51 1017.7
20260509221817 71 45 3.0 6.0 0.00 0.00 0.00 54 1017.9
20260509220817 70 68 2.0 5.0 0.00 0.00 0.00 56 1017.9
20260509215817 70 45 2.0 5.0 0.00 0.00 0.00 56 1018.0
20260509214817 69 23 4.0 7.0 0.00 0.00 0.00 56 1018.2
20260509213817 70 23 4.0 5.0 0.00 0.00 0.00 56 1018.4
20260509212817 69 293 2.0 4.0 0.00 0.00 0.00 57 1018.4
20260509211817 68 45 1.0 2.0 0.00 0.00 0.00 57 1018.3
20260509210817 69 113 1.0 2.0 0.00 0.00 0.00 57 1018.3
20260509205857 69 45 3.0 7.0 0.00 0.00 0.00 58 1018.6
20260509204817 69 293 2.0 4.0 0.00 0.00 0.00 57 1018.7
20260509203857 69 293 3.0 5.0 0.00 0.00 0.00 56 1018.7
20260509202817 69 23 1.0 3.0 0.00 0.00 0.00 57 1018.7
20260509201817 68 0.0 1.0 0.00 0.00 0.00 58 1018.8
20260509200817 68 23 2.0 3.0 0.00 0.00 0.00 58 1019.0
20260509195817 68 23 2.0 3.0 0.00 0.00 0.00 59 1019.1
20260509194817 67 0.0 0.0 0.00 0.00 0.00 60 1019.2
20260509193817 69 315 1.0 3.0 0.00 0.00 0.00 58 1019.4
20260509192837 68 338 2.0 3.0 0.00 0.00 0.00 59 1019.6
20260509191817 67 270 3.0 8.0 0.00 0.00 0.00 60 1019.6
20260509190817 67 293 2.0 6.0 0.00 0.00 0.00 59 1019.7
20260509185817 67 0 2.0 4.0 0.00 0.00 0.00 60 1019.8
20260509184837 67 23 3.0 4.0 0.00 0.00 0.00 61 1019.8
20260509183817 67 45 2.0 5.0 0.00 0.00 0.00 59 1019.9
20260509182817 67 270 1.0 2.0 0.00 0.00 0.00 60 1020.1
20260509181817 65 0.0 0.0 0.00 0.00 0.00 62 1020.1
20260509180817 65 68 1.0 3.0 0.00 0.00 0.00 64 1020.1
20260509175817 64 23 4.0 6.0 0.00 0.00 0.00 64 1020.0
20260509174817 64 68 4.0 8.0 0.00 0.00 0.00 65 1020.2
20260509173817 63 23 3.0 5.0 0.00 0.00 0.00 67 1020.2
20260509172817 63 23 4.0 5.0 0.00 0.00 0.00 68 1020.4
20260509171817 61 45 4.0 6.0 0.00 0.00 0.00 69 1020.6
20260509170817 61 68 4.0 6.0 0.00 0.00 0.00 72 1020.7
20260509165817 60 68 4.0 6.0 0.00 0.00 0.00 73 1020.5
20260509164817 59 45 3.0 5.0 0.00 0.00 0.00 74 1020.5
20260509163817 59 68 3.0 5.0 0.00 0.00 0.00 76 1020.7
20260509162817 58 23 3.0 5.0 0.00 0.00 0.00 78 1020.9
20260509161817 58 68 3.0 5.0 0.00 0.00 0.00 79 1021.0
20260509160817 57 45 3.0 6.0 0.00 0.00 0.00 80 1021.0
20260509155817 56 23 4.0 6.0 0.00 0.00 0.00 82 1021.1
20260509154817 56 68 3.0 11.0 0.00 0.00 0.00 83 1021.1
20260509153817 55 68 5.0 8.0 0.00 0.00 0.00 86 1021.2
20260509152817 55 45 5.0 8.0 0.00 0.00 0.00 88 1021.3
20260509151817 54 45 3.0 6.0 0.00 0.00 0.00 89 1021.6
20260509150817 53 45 4.0 7.0 0.00 0.00 0.00 91 1021.5
20260509145817 52 68 5.0 8.0 0.00 0.00 0.00 92 1021.4
20260509144817 52 90 2.0 4.0 0.00 0.00 0.00 93 1021.6
20260509143837 50 23 2.0 3.0 0.00 0.00 0.00 94 1021.5
20260509142837 49 23 2.0 4.0 0.00 0.00 0.00 94 1021.5
20260509141817 49 23 2.0 5.0 0.00 0.00 0.00 94 1021.6
20260509140817 48 23 2.0 3.0 0.00 0.00 0.00 94 1021.5
20260509135817 47 45 2.0 3.0 0.00 0.00 0.00 94 1021.4
20260509134817 46 0.0 0.0 0.00 0.00 0.00 94 1021.5
20260509133817 45 0.0 0.0 0.00 0.00 0.00 93 1021.4
20260509132817 45 0.0 0.0 0.00 0.00 0.00 93 1021.4
20260509131837 45 68 2.0 3.0 0.00 0.00 0.00 93 1021.5
20260509130817 45 45 3.0 4.0 0.00 0.00 0.00 93 1021.4
20260509125837 45 68 2.0 3.0 0.00 0.00 0.00 93 1021.6
20260509124817 45 0.0 1.0 0.00 0.00 0.00 93 1021.5
20260509123817 45 0.0 1.0 0.00 0.00 0.00 92 1021.6
20260509122817 46 0.0 0.0 0.00 0.00 0.00 92 1021.7
20260509121817 46 0.0 0.0 0.00 0.00 0.00 92 1021.6
20260509120817 47 45 1.0 3.0 0.00 0.00 0.00 92 1021.6
20260509115817 47 0.0 1.0 0.00 0.00 0.00 92 1021.7
20260509114817 47 0.0 1.0 0.00 0.00 0.00 92 1021.7
20260509113837 47 0.0 0.0 0.00 0.00 0.00 92 1022.0
20260509112817 48 0.0 0.0 0.00 0.00 0.00 92 1021.9
20260509111817 48 0.0 0.0 0.00 0.00 0.00 92 1022.1
20260509110817 48 0.0 0.0 0.00 0.00 0.00 92 1022.2